This is the latest recevied weather packets stored in our database for station/object N8HKU-5. If no packets are shown the sender has not sent any weather packets the latest 10 day(s).
| Time | Temp. | Humidity | Pressure | Rain* | Wind** | Luminosity | Snow |
|---|---|---|---|---|---|---|---|
| 1778016154 | 12.22° C | 70% | 1005.2 hPa | 0 mm | - | - | - |
| 1778015553 | 12.22° C | 70% | 1005.2 hPa | 0 mm | - | - | - |
| 1778014953 | 12.22° C | 71% | 1005.3 hPa | 0 mm | - | - | - |
| 1778014354 | 12.22° C | 71% | 1005.4 hPa | 0 mm | - | - | - |
| 1778013753 | 12.22° C | 70% | 1005.5 hPa | 0 mm | - | - | - |
| 1778013153 | 12.22° C | 69% | 1005.5 hPa | 0 mm | - | - | - |
| 1778012553 | 12.22° C | 68% | 1005.5 hPa | 0 mm | - | - | - |
| 1778011955 | 12.22° C | 70% | 1005.7 hPa | 0 mm | - | - | - |
| 1778011353 | 12.22° C | 70% | 1005.7 hPa | 0 mm | - | - | - |
| 1778010753 | 12.22° C | 69% | 1005.6 hPa | 0 mm | - | - | - |
| 1778010154 | 11.67° C | 71% | 1005.8 hPa | 0 mm | - | - | - |
| 1778009554 | 11.67° C | 70% | 1005.8 hPa | 0 mm | - | - | - |
| 1778008954 | 12.22° C | 73% | 1005.7 hPa | 0 mm | - | - | - |
| 1778008353 | 11.67° C | 74% | 1005.7 hPa | 0 mm | - | - | - |
| 1778007754 | 11.11° C | 71% | 1005.9 hPa | 0 mm | - | - | - |
| 1778007153 | 11.11° C | 75% | 1006 hPa | 0 mm | - | - | - |
| 1778006553 | 11.11° C | 74% | 1006 hPa | 0 mm | - | - | - |
| 1778005953 | 11.11° C | 75% | 1005.8 hPa | 0 mm | - | - | - |
| 1778005353 | 11.11° C | 74% | 1005.8 hPa | 0 mm | - | - | - |
| 1778004753 | 11.11° C | 76% | 1005.7 hPa | 0 mm | - | - | - |
| 1778004153 | 11.11° C | 74% | 1005.6 hPa | 0 mm | - | - | - |
| 1778003553 | 11.67° C | 75% | 1005.3 hPa | 0.25 mm | - | - | - |
| 1778002953 | 11.67° C | 77% | 1005.3 hPa | 0.51 mm | - | - | - |
| 1778002354 | 11.11° C | 79% | 1005.3 hPa | 0.51 mm | - | - | - |
| 1778001753 | 11.11° C | 83% | 1005 hPa | 0.51 mm | - | - | - |
* Rain latest hour (hover to see other rain measurements)
** Current wind speed in m/s (hover to see current wind gust speed)